Hayward, WI

2:05 PM CDT on June 22, 2018 (GMT -0500)
Sawyer County

Weather History for KHYR - January, 2015

Change the Weather History Date:

Thursday, January 1, 2015

  Actual Average Record
Temperature  
Mean Temperature 14 °F -  
Max Temperature 26 °F 31 °F 37 °F (1949)
Min Temperature -4 °F 1 °F -24 °F (1999)
Degree Days  
Heating Degree Days 52    
Moisture  
Dew Point 11 °F    
Average Humidity 76    
Maximum Humidity 88    
Minimum Humidity 43    
Precipitation  
Precipitation 0.03 in - - ()
Sea Level Pressure  
Sea Level Pressure 29.83 in    
Wind  
Wind Speed 7 mph (WSW)    
Max Wind Speed 12 mph    
Max Gust Speed 20 mph    
Visibility 5 miles    
Events Fog , Snow    
Averages and records for this station are not official NWS values.
T = Trace of Precipitation, MM = Missing Value Source: NWS Daily Summary

Daily Weather History Graph

Daily Weather History Graph

Search for Another Location

Airport or City:

Astronomy

Jan. 01, 2015 Rise Set
Actual Time 7:47 AM CST 4:30 PM CST
Civil Twilight 7:13 AM CST 5:05 PM CST
Nautical Twilight 6:35 AM CST 5:43 PM CST
Astronomical Twilight 5:59 AM CST 6:19 PM CST
Moon 2:09 PM CST (1/1) 4:10 AM CST (1/1)
Length of Visible Light 9h 52m
Length of Day
8h 43m
Waxing Gibbous, 88% of the Moon is Illuminated
Jan 1
Waxing Gibbous
Jan 4
Full
Jan 13
Last Quarter
Jan 20
New
Jan 26
First Quarter

Hourly Weather History & Observations

Time (CST) Temp. Windchill Dew Point Humidity Pressure Visibility Wind Dir Wind Speed Gust Speed Precip Events Conditions
12:29 AM 10.0 °F -0.9 °F 3.9 °F 76% 29.79 in 10.0 mi SSW 6.9 mph - N/A   Overcast
12:53 AM 10.9 °F -1.8 °F 5.0 °F 77% 29.87 in 10.0 mi SSW 9.2 mph - N/A   Overcast
1:48 AM 12.2 °F 0.7 °F 6.8 °F 79% 29.77 in 10.0 mi SW 8.1 mph - N/A   Overcast
1:53 AM 12.9 °F 1.6 °F 7.0 °F 77% 29.85 in 10.0 mi SW 8.1 mph - N/A   Overcast
2:14 AM 12.9 °F -0.2 °F 7.0 °F 77% 29.75 in 10.0 mi SSW 10.4 mph - N/A   Overcast
2:29 AM 12.9 °F 1.6 °F 8.1 °F 81% 29.74 in 10.0 mi SSW 8.1 mph - N/A   Overcast
2:43 AM 14.0 °F 2.9 °F 8.1 °F 77% 29.76 in 10.0 mi SW 8.1 mph - N/A   Overcast
2:53 AM 14.0 °F 2.0 °F 9.0 °F 80% 29.85 in 10.0 mi SW 9.2 mph - N/A   Overcast
3:53 AM 15.1 °F 2.5 °F 9.0 °F 77% 29.82 in 4.0 mi SW 10.4 mph - 0.00 in Snow Light Snow
3:56 AM 15.1 °F 2.5 °F 9.0 °F 77% 29.74 in 1.8 mi SW 10.4 mph - 0.00 in Snow Light Snow
4:01 AM 15.1 °F 3.3 °F 10.0 °F 80% 29.74 in 0.8 mi SW 9.2 mph - 0.00 in Snow Light Snow
4:13 AM 14.0 °F 2.9 °F 10.0 °F 84% 29.73 in 1.0 mi SSW 8.1 mph - 0.00 in Snow Light Snow
4:45 AM 15.1 °F 2.5 °F 10.9 °F 84% 29.73 in 0.5 mi SSW 10.4 mph - 0.00 in Fog , Snow Snow
4:53 AM 15.1 °F 4.2 °F 10.9 °F 84% 29.81 in 0.5 mi SW 8.1 mph - 0.00 in Fog , Snow Snow
5:53 AM 16.0 °F 7.4 °F 12.0 °F 84% 29.79 in 0.5 mi SSW 5.8 mph - 0.02 in Fog , Snow Snow
6:24 AM 17.1 °F 7.6 °F 12.9 °F 84% 29.71 in 0.8 mi SW 6.9 mph - 0.01 in Snow Light Snow
6:35 AM 17.1 °F 6.6 °F 12.9 °F 84% 29.71 in 1.0 mi SW 8.1 mph - 0.01 in Snow Light Snow
6:42 AM 17.1 °F 6.6 °F 12.9 °F 84% 29.72 in 1.5 mi SW 8.1 mph - 0.01 in Snow Light Snow
6:53 AM 18.0 °F 7.7 °F 14.0 °F 84% 29.79 in 1.2 mi WSW 8.1 mph - 0.01 in Snow Light Snow
7:48 AM 17.6 °F 8.2 °F 14.0 °F 86% 29.72 in 2.0 mi SW 6.9 mph - 0.00 in Snow Light Snow
7:53 AM 18.0 °F 9.8 °F 14.0 °F 84% 29.80 in 3.0 mi WSW 5.8 mph - 0.00 in Snow Light Snow
7:58 AM 18.0 °F 8.7 °F 14.0 °F 84% 29.72 in 1.8 mi WSW 6.9 mph - 0.00 in Snow Light Snow
8:09 AM 18.0 °F 8.7 °F 15.1 °F 88% 29.73 in 1.0 mi WSW 6.9 mph - 0.00 in Snow Light Snow
8:19 AM 19.0 °F 10.0 °F 15.1 °F 85% 29.73 in 1.2 mi WSW 6.9 mph - 0.00 in Snow Light Snow
8:27 AM 19.0 °F 11.1 °F 15.1 °F 85% 29.73 in 1.0 mi WSW 5.8 mph - 0.00 in Snow Light Snow
8:37 AM 19.0 °F 9.0 °F 15.1 °F 85% 29.74 in 0.8 mi WSW 8.1 mph - 0.00 in Snow Light Snow
8:46 AM 19.0 °F 11.1 °F 15.1 °F 85% 29.74 in 1.0 mi Variable 5.8 mph - 0.00 in Snow Light Snow
8:53 AM 19.0 °F 11.1 °F 15.1 °F 85% 29.82 in 1.2 mi WSW 5.8 mph - 0.00 in Snow Light Snow
9:05 AM 19.9 °F 12.1 °F 16.0 °F 85% 29.75 in 2.0 mi WSW 5.8 mph - 0.00 in Snow Light Snow
9:12 AM 19.9 °F 11.1 °F 16.0 °F 85% 29.75 in 1.8 mi WSW 6.9 mph - 0.00 in Snow Light Snow
9:44 AM 21.0 °F 13.4 °F 16.0 °F 81% 29.75 in 1.8 mi Variable 5.8 mph - 0.00 in Snow Light Snow
9:53 AM 21.0 °F 11.4 °F 16.0 °F 81% 29.84 in 3.0 mi West 8.1 mph - 0.00 in   Haze
10:13 AM 21.9 °F 13.4 °F 16.0 °F 78% 29.76 in 9.0 mi West 6.9 mph - N/A   Overcast
10:53 AM 23.0 °F 13.1 °F 17.1 °F 78% 29.85 in 8.0 mi West 9.2 mph - N/A   Overcast
11:53 AM 24.1 °F 16.0 °F 17.1 °F 75% 29.86 in 5.0 mi West 6.9 mph - N/A   Haze
12:28 PM 25.0 °F 17.1 °F 16.0 °F 69% 29.79 in 9.0 mi WNW 6.9 mph - N/A   Overcast
12:37 PM 24.1 °F 18.2 °F 16.0 °F 71% 29.79 in 2.5 mi WNW 4.6 mph - 0.00 in Snow Light Snow
12:44 PM 24.1 °F 17.0 °F 17.1 °F 75% 29.79 in 1.0 mi Variable 5.8 mph - 0.00 in Snow Light Snow
12:53 PM 24.1 °F 18.2 °F 18.0 °F 77% 29.86 in 0.5 mi WNW 4.6 mph - 0.00 in Snow Snow
1:03 PM 26.1 °F 20.5 °F 19.9 °F 78% 29.79 in 1.2 mi NW 4.6 mph - 0.00 in Snow Light Snow
1:06 PM 25.0 °F 20.7 °F 18.0 °F 75% 29.79 in 3.0 mi WNW 3.5 mph - 0.00 in Snow Light Snow
1:27 PM 25.0 °F 19.3 °F 16.0 °F 69% 29.80 in 5.0 mi Variable 4.6 mph - 0.00 in Snow Light Snow
1:31 PM 25.0 °F - 16.0 °F 69% 29.80 in 2.5 mi North - - 0.00 in Snow Light Snow
1:35 PM 24.1 °F 17.0 °F 16.0 °F 71% 29.80 in 1.8 mi WNW 5.8 mph - 0.00 in Snow Light Snow
1:43 PM 25.0 °F 20.7 °F 17.1 °F 72% 29.80 in 2.5 mi Variable 3.5 mph - 0.00 in Snow Light Snow
1:50 PM 24.8 °F 20.5 °F 17.6 °F 74% 29.81 in 4.0 mi WNW 3.5 mph - 0.00 in Snow Light Snow
1:53 PM 25.0 °F 18.1 °F 17.1 °F 72% 29.88 in 4.0 mi Variable 5.8 mph - 0.00 in Snow Light Snow
2:01 PM 25.0 °F 20.7 °F 17.1 °F 72% 29.82 in 3.0 mi Variable 3.5 mph - 0.00 in Snow Light Snow
2:27 PM 25.0 °F 16.3 °F 14.0 °F 63% 29.83 in 10.0 mi West 8.1 mph 17.3 mph 0.00 in   Overcast
2:53 PM 26.1 °F 15.6 °F 10.9 °F 53% 29.91 in 10.0 mi WNW 11.5 mph 19.6 mph 0.00 in   Overcast
3:53 PM 24.1 °F 17.0 °F 9.0 °F 53% 29.95 in 10.0 mi Variable 5.8 mph - N/A   Mostly Cloudy
4:53 PM 19.9 °F 12.1 °F 3.0 °F 48% 29.99 in 10.0 mi NNW 5.8 mph - N/A   Clear
5:53 PM 16.0 °F 10.4 °F -2.9 °F 43% 30.04 in 10.0 mi Variable 3.5 mph - N/A   Partly Cloudy
6:53 PM 7.0 °F - -0.9 °F 70% 30.08 in 10.0 mi Calm Calm - N/A   Clear
7:53 PM 1.9 °F - -6.0 °F 69% 30.12 in 10.0 mi Calm Calm - N/A   Clear
8:53 PM 1.9 °F - -2.9 °F 80% 30.14 in 10.0 mi Calm Calm - N/A   Clear
9:53 PM 8.1 °F - -6.0 °F 53% 30.15 in 10.0 mi Calm Calm - N/A   Clear
10:53 PM 1.0 °F - -6.0 °F 72% 30.17 in 10.0 mi Calm Calm - N/A   Clear
11:53 PM -4.0 °F - -9.0 °F 79% 30.18 in 10.0 mi Calm Calm - N/A   Clear